DW9029 Weather Reports


Display with metric or nautical units.
time (UTC)temp
F
wind
direction
speed
MPH
gust
MPH
rain 1hr
in
rain 24hr
in
rain mn
in
humidity
%
barometer
mb
20260509213405 60 205 0.0 6.0 0.00 0.46 0.46 86 1013.4
20260509211905 61 199 1.0 7.0 0.00 0.46 0.46 87 1013.2
20260509210905 61 222 1.0 6.0 0.00 0.46 0.46 88 1013.1
20260509203405 61 192 0.0 7.0 0.00 0.46 0.46 86 1012.8
20260509201905 61 191 2.0 8.0 0.00 0.46 0.46 85 1012.7
20260509201405 61 211 1.0 7.0 0.00 0.46 0.46 84 1012.6
20260509200905 62 211 0.0 6.0 0.00 0.46 0.46 84 1012.5
20260509200405 62 225 0.0 7.0 0.00 0.46 0.46 83 1012.4
20260509194905 61 226 1.0 3.0 0.00 0.46 0.46 80 1012.2
20260509194405 61 205 0.0 6.0 0.00 0.46 0.46 80 1012.2
20260509193905 61 209 3.0 9.0 0.00 0.46 0.46 80 1012.0
20260509193405 61 222 1.0 9.0 0.00 0.46 0.46 79 1011.9
20260509191905 61 218 3.0 7.0 0.00 0.46 0.46 79 1011.9
20260509191405 62 194 0.0 5.0 0.00 0.46 0.46 78 1011.8
20260509190405 62 210 7.0 12.0 0.00 0.46 0.46 77 1011.8
20260509184405 63 210 6.0 12.0 0.00 0.46 0.46 81 1011.4
20260509183905 63 207 6.0 12.0 0.00 0.46 0.46 81 1011.3
20260509183405 63 199 7.0 20.0 0.00 0.46 0.46 81 1011.3
20260509181904 65 213 9.0 15.0 0.00 0.46 0.46 73 1011.2
20260509181405 65 219 9.0 16.0 0.00 0.46 0.46 71 1011.0
20260509180405 66 221 7.0 16.0 0.00 0.46 0.46 70 1011.0
20260509174905 66 216 7.0 20.0 0.00 0.46 0.46 69 1010.8
20260509174405 66 218 9.0 16.0 0.00 0.46 0.46 68 1010.8
20260509173905 66 210 12.0 22.0 0.00 0.46 0.46 66 1010.7
20260509173405 67 227 3.0 17.0 0.00 0.46 0.46 69 1010.6
20260509171905 66 212 10.0 17.0 0.00 0.46 0.46 71 1010.6
20260509171405 66 185 5.0 16.0 0.00 0.46 0.46 73 1010.5
20260509170905 66 207 9.0 17.0 0.00 0.46 0.46 72 1010.5
20260509170405 66 207 10.0 20.0 0.00 0.46 0.46 71 1010.4
20260509164905 67 213 10.0 18.0 0.00 0.46 0.46 66 1010.2
20260509163405 68 211 9.0 23.0 0.00 0.46 0.46 64 1010.1
20260509161905 68 215 6.0 15.0 0.00 0.46 0.46 65 1010.0
20260509161405 68 231 10.0 18.0 0.00 0.46 0.46 64 1010.0
20260509160405 69 197 9.0 16.0 0.00 0.46 0.46 61 1009.9
20260509154404 68 222 8.0 16.0 0.00 0.46 0.46 64 1009.9
20260509151905 68 239 9.0 16.0 0.00 0.46 0.46 62 1009.8
20260509151404 68 215 5.0 15.0 0.00 0.46 0.46 63 1009.8
20260509150905 69 223 10.0 20.0 0.00 0.46 0.46 61 1009.9
20260509150405 69 207 10.0 20.0 0.00 0.46 0.46 61 1009.8
20260509144405 68 232 6.0 15.0 0.00 0.46 0.46 61 1009.7
20260509143904 68 206 12.0 17.0 0.00 0.46 0.46 61 1009.7
20260509141905 68 206 10.0 17.0 0.00 0.46 0.46 62 1009.6
20260509141405 68 211 9.0 15.0 0.00 0.46 0.46 62 1009.6
20260509140905 68 206 9.0 20.0 0.00 0.46 0.46 63 1009.6
20260509140405 68 203 11.0 22.0 0.00 0.46 0.46 65 1009.5
20260509134905 68 234 6.0 15.0 0.00 0.46 0.46 66 1009.5
20260509134405 67 206 8.0 20.0 0.00 0.46 0.46 65 1009.5
20260509133905 68 211 9.0 15.0 0.00 0.46 0.46 66 1009.5
20260509133405 67 210 5.0 20.0 0.00 0.46 0.46 67 1009.4
20260509131905 67 216 7.0 20.0 0.00 0.46 0.46 69 1009.3
20260509131404 66 212 11.0 20.0 0.00 0.46 0.46 71 1009.3
20260509130405 66 218 3.0 16.0 0.08 0.46 0.46 77 1009.2
20260509124904 63 206 10.0 23.0 0.28 0.46 0.46 82 1009.3
20260509124405 63 219 7.0 15.0 0.28 0.46 0.46 89 1009.3
20260509123905 62 181 5.0 9.0 0.28 0.46 0.46 89 1009.3
20260509123405 61 209 5.0 12.0 0.28 0.46 0.46 89 1009.4
20260509121905 59 192 5.0 13.0 0.42 0.46 0.46 88 1009.2
20260509121405 58 182 1.0 8.0 0.43 0.46 0.46 87 1009.2
20260509120905 58 202 6.0 16.0 0.42 0.45 0.45 86 1009.2
20260509114905 62 208 6.0 10.0 0.15 0.18 0.18 87 1008.7
20260509114405 61 223 2.0 8.0 0.15 0.18 0.18 88 1008.7
20260509113905 61 216 3.0 12.0 0.16 0.18 0.18 87 1008.7
20260509113405 60 207 7.0 16.0 0.16 0.18 0.18 86 1008.8
20260509111905 63 229 6.0 16.0 0.02 0.04 0.04 83 1008.6
20260509111405 63 178 5.0 12.0 0.01 0.03 0.03 83 1008.1
20260509110905 63 182 2.0 12.0 0.01 0.03 0.03 83 1008.4
20260509104905 64 155 5.0 14.0 0.01 0.03 0.03 81 1008.4
20260509104405 65 157 5.0 18.0 0.01 0.03 0.03 79 1008.3
20260509103905 65 175 7.0 16.0 0.00 0.02 0.02 77 1008.5
20260509103405 65 178 7.0 24.0 0.00 0.02 0.02 76 1008.6
20260509101905 66 173 6.0 18.0 0.01 0.02 0.02 76 1008.3
20260509100905 66 197 6.0 23.0 0.02 0.02 0.02 78 1008.2
20260509100405 66 158 8.0 17.0 0.02 0.02 0.02 80 1008.1
20260509094905 63 182 7.0 20.0 0.02 0.02 0.02 83 1008.1
20260509094405 63 186 8.0 18.0 0.02 0.02 0.02 83 1008.0
20260509093905 63 205 9.0 20.0 0.02 0.02 0.02 84 1008.0
20260509093405 63 194 10.0 21.0 0.02 0.02 0.02 86 1008.1
20260509091904 62 201 6.0 14.0 0.02 0.02 0.02 86 1008.4
20260509091405 62 204 7.0 17.0 0.02 0.02 0.02 84 1008.3
20260509090905 63 174 8.0 26.0 0.01 0.01 0.01 81 1008.3
20260509090405 64 184 6.0 20.0 0.00 0.00 0.00 77 1008.3
20260509084904 65 178 7.0 22.0 0.00 0.00 0.00 76 1007.9
20260509084405 65 182 8.0 20.0 0.00 0.00 0.00 76 1007.9
20260509083905 64 185 7.0 21.0 0.00 0.00 0.00 76 1007.8
20260509083404 64 178 7.0 22.0 0.00 0.00 0.00 77 1007.9
20260509080905 64 154 9.0 22.0 0.00 0.00 0.00 78 1007.7
20260509080405 64 162 9.0 17.0 0.00 0.00 0.00 77 1007.6
20260509074905 64 160 7.0 18.0 0.00 0.00 0.00 77 1007.8
20260509074404 63 169 5.0 14.0 0.00 0.00 0.00 79 1007.7
20260509073905 62 186 10.0 20.0 0.00 0.00 0.00 79 1007.6
20260509071905 62 166 10.0 18.0 0.00 0.00 0.00 80 1007.9
20260509071405 61 167 6.0 16.0 0.00 0.00 0.00 81 1007.9
20260509070905 61 170 9.0 20.0 0.00 0.00 0.00 81 1007.8
20260509070405 61 169 8.0 18.0 0.00 0.00 0.00 82 1007.8
20260509064905 61 169 3.0 12.0 0.00 0.00 0.00 81 1007.6
20260509063904 61 168 10.0 17.0 0.00 0.00 0.00 81 1007.5
20260509063405 61 178 7.0 16.0 0.00 0.00 0.00 82 1007.5
20260509061906 61 173 2.0 10.0 0.00 0.00 0.00 83 1007.4
20260509061405 61 169 2.0 13.0 0.00 0.00 0.00 83 1007.3
20260509054905 61 155 2.0 10.0 0.00 0.00 0.00 82 1007.2
20260509054405 61 160 4.0 10.0 0.00 0.00 0.00 82 1007.1
20260509053905 61 156 5.0 10.0 0.00 0.00 0.00 83 1007.2
20260509053405 61 170 3.0 14.0 0.00 0.00 0.00 82 1007.2
20260509051905 61 174 1.0 3.0 0.00 0.00 0.00 80 1007.4
20260509051405 61 178 0.0 0.0 0.00 0.00 0.00 80 1007.2
20260509050905 61 179 0.0 1.0 0.00 0.00 0.00 80 1007.1
20260509050405 61 180 0.0 1.0 0.00 0.00 0.00 80 1007.1
20260509044905 61 180 0.0 0.0 0.00 0.00 0.00 80 1006.9
20260509043905 61 180 0.0 0.0 0.00 0.00 0.00 79 1006.8
20260509043404 61 182 0.0 2.0 0.00 0.00 0.00 79 1006.9
20260509041905 61 185 0.0 5.0 0.00 0.00 0.00 78 1007.2
20260509041405 61 183 0.0 0.0 0.00 0.00 0.00 78 1007.1
20260509040904 61 176 1.0 3.0 0.00 0.00 0.00 77 1007.1
20260509040405 61 213 0.0 0.0 0.00 0.00 0.00 76 1007.1
20260509034905 61 184 0.0 0.0 0.00 0.00 0.00 76 1007.0
20260509034405 61 184 0.0 0.0 0.00 0.00 0.00 76 1007.1
20260509033905 61 184 0.0 0.0 0.00 0.00 0.00 76 1007.2
20260509033405 61 184 0.0 0.0 0.00 0.00 0.00 76 1007.1
20260509031905 61 184 0.0 0.0 0.00 0.00 0.00 76 1007.3
20260509031405 61 184 0.0 0.0 0.00 0.00 0.00 76 1007.2
20260509030905 61 184 0.0 0.0 0.00 0.00 0.00 76 1007.2
20260509024905 61 184 0.0 0.0 0.00 0.00 0.00 76 1007.4
20260509024405 61 184 0.0 0.0 0.00 0.00 0.00 76 1007.4
20260509023905 61 186 0.0 1.0 0.00 0.00 0.00 76 1007.5
20260509023405 61 186 0.0 0.0 0.00 0.00 0.00 76 1007.5
20260509021905 61 186 0.0 0.0 0.00 0.00 0.00 76 1007.6
20260509021405 61 186 0.0 0.0 0.00 0.00 0.00 77 1007.5
20260509020905 61 186 0.0 0.0 0.00 0.00 0.00 77 1007.5
20260509020405 61 186 0.0 0.0 0.00 0.00 0.00 76 1007.5
20260509014905 61 186 0.0 0.0 0.00 0.00 0.00 76 1007.6
20260509014404 61 186 0.0 0.0 0.00 0.00 0.00 76 1007.7
20260509013905 61 186 0.0 0.0 0.00 0.00 0.00 76 1007.7
20260509013404 61 192 0.0 0.0 0.00 0.00 0.00 76 1007.7
20260509011905 61 192 0.0 0.0 0.00 0.00 0.00 75 1007.9
20260509010905 61 192 0.0 0.0 0.00 0.00 0.00 75 1008.0
20260509010405 61 192 0.0 0.0 0.00 0.00 0.00 76 1008.0
20260509004905 61 192 0.0 0.0 0.00 0.00 0.00 75 1008.1
20260509004404 61 192 0.0 0.0 0.00 0.00 0.00 75 1008.1
20260509003905 62 192 0.0 0.0 0.00 0.00 0.00 75 1008.1
20260509003405 62 192 0.0 0.0 0.00 0.00 0.00 74 1008.2
20260509001905 62 192 0.0 0.0 0.00 0.00 0.00 73 1008.3
20260509001405 62 192 0.0 0.0 0.00 0.00 0.00 73 1008.5
20260509000904 62 192 0.0 0.0 0.00 0.00 0.00 73 1008.5
20260509000405 62 192 0.0 0.0 0.00 0.00 0.00 73 1008.5
20260508234905 63 192 0.0 0.0 0.00 0.00 0.00 72 1008.6
20260508233405 63 208 0.0 5.0 0.00 0.00 0.00 72 1008.7
20260508231905 63 210 2.0 5.0 0.00 0.00 0.00 71 1008.9
20260508231405 64 223 1.0 6.0 0.00 0.00 0.00 71 1009.0
20260508230905 64 221 0.0 0.0 0.00 0.00 0.00 71 1009.0
20260508230405 64 210 0.0 6.0 0.00 0.00 0.00 71 1009.1
20260508224905 63 203 1.0 5.0 0.00 0.00 0.00 70 1009.1
20260508223405 63 215 1.0 6.0 0.00 0.00 0.00 69 1009.2
20260508221905 63 209 0.0 3.0 0.00 0.00 0.00 69 1009.0
20260508221405 63 236 0.0 3.0 0.00 0.00 0.00 68 1009.1
20260508220905 63 258 1.0 3.0 0.00 0.00 0.00 68 1009.1
20260508214905 63 260 1.0 5.0 0.00 0.00 0.00 67 1009.0
20260508214405 63 267 1.0 3.0 0.00 0.00 0.00 66 1009.1
20260508213905 63 242 1.0 6.0 0.00 0.00 0.00 66 1009.1